datetime,flow
2001-10-01,100.0
2001-10-02,55.0
2001-10-03,53.0
2001-10-04,45.0
2001-10-05,43.0
2001-10-06,43.0
2001-10-07,43.0
2001-10-08,42.0
2001-10-09,43.0
2001-10-10,43.0
2001-10-11,37.0
2001-10-12,37.0
2001-10-13,36.0
2001-10-14,35.0
2001-10-15,40.0
2001-10-16,47.0
2001-10-17,47.0
2001-10-18,39.0
2001-10-19,40.0
2001-10-20,40.0
2001-10-21,40.0
2001-10-22,41.0
2001-10-23,40.0
2001-10-24,40.0
2001-10-25,31.0
2001-10-26,81.0
2001-10-27,94.0
2001-10-28,94.0
2001-10-29,94.0
2001-10-30,93.0
2001-10-31,99.0
2001-11-01,96.0
2001-11-02,94.0
2001-11-03,96.0
2001-11-04,95.0
2001-11-05,95.0
2001-11-06,97.0
2001-11-07,96.0
2001-11-08,97.0
2001-11-09,97.0
2001-11-10,98.0
2001-11-11,96.0
2001-11-12,97.0
2001-11-13,97.0
2001-11-14,96.0
2001-11-15,96.0
2001-11-16,97.0
2001-11-17,98.0
2001-11-18,98.0
2001-11-19,98.0
2001-11-20,97.0
2001-11-21,96.0
2001-11-22,105.0
2001-11-23,99.0
2001-11-24,97.0
2001-11-25,98.0
2001-11-26,99.0
2001-11-27,95.0
2001-11-28,100.0
2001-11-29,96.0
2001-11-30,100.0
2001-12-01,96.0
2001-12-02,98.0
2001-12-03,100.0
2001-12-04,100.0
2001-12-05,99.0
2001-12-06,101.0
2001-12-07,102.0
2001-12-08,98.0
2001-12-09,100.0
2001-12-10,100.0
2001-12-11,100.0
2001-12-12,99.0
2001-12-13,99.0
2001-12-14,101.0
2001-12-15,100.0
2001-12-16,94.0
2001-12-17,100.0
2001-12-18,102.0
2001-12-19,102.0
2001-12-20,101.0
2001-12-21,101.0
2001-12-22,101.0
2001-12-23,96.0
2001-12-24,95.0
2001-12-25,96.0
2001-12-26,96.0
2001-12-27,103.0
2001-12-28,105.0
2001-12-29,105.0
2001-12-30,106.0
2001-12-31,104.0
2002-01-01,102.0
2002-01-02,102.0
2002-01-03,104.0
2002-01-04,133.0
2002-01-05,155.0
2002-01-06,157.0
2002-01-07,158.0
2002-01-08,159.0
2002-01-09,160.0
2002-01-10,160.0
2002-01-11,160.0
2002-01-12,159.0
2002-01-13,157.0
2002-01-14,154.0
2002-01-15,158.0
2002-01-16,153.0
2002-01-17,154.0
2002-01-18,157.0
2002-01-19,154.0
2002-01-20,158.0
2002-01-21,160.0
2002-01-22,158.0
2002-01-23,150.0
2002-01-24,153.0
2002-01-25,156.0
2002-01-26,158.0
2002-01-27,157.0
2002-01-28,167.0
2002-01-29,173.0
2002-01-30,168.0
2002-01-31,172.0
2002-02-01,173.0
2002-02-02,174.0
2002-02-03,175.0
2002-02-04,174.0
2002-02-05,179.0
2002-02-06,176.0
2002-02-07,175.0
2002-02-08,177.0
2002-02-09,174.0
2002-02-10,173.0
2002-02-11,174.0
2002-02-12,134.0
2002-02-13,102.0
2002-02-14,103.0
2002-02-15,101.0
2002-02-16,100.0
2002-02-17,101.0
2002-02-18,102.0
2002-02-19,100.0
2002-02-20,104.0
2002-02-21,101.0
2002-02-22,101.0
2002-02-23,101.0
2002-02-24,101.0
2002-02-25,99.0
2002-02-26,98.0
2002-02-27,100.0
2002-02-28,100.0
2002-03-01,100.0
2002-03-02,101.0
2002-03-03,100.0
2002-03-04,100.0
2002-03-05,100.0
2002-03-06,100.0
2002-03-07,102.0
2002-03-08,101.0
2002-03-09,100.0
2002-03-10,100.0
2002-03-11,96.0
2002-03-12,93.0
2002-03-13,95.0
2002-03-14,93.0
2002-03-15,90.0
2002-03-16,91.0
2002-03-17,91.0
2002-03-18,90.0
2002-03-19,90.0
2002-03-20,92.0
2002-03-21,97.0
2002-03-22,97.0
2002-03-23,98.0
2002-03-24,98.0
2002-03-25,97.0
2002-03-26,96.0
2002-03-27,97.0
2002-03-28,97.0
2002-03-29,99.0
2002-03-30,100.0
2002-03-31,101.0
2002-04-01,104.0
2002-04-02,103.0
2002-04-03,104.0
2002-04-04,105.0
2002-04-05,84.0
2002-04-06,71.0
2002-04-07,70.0
2002-04-08,69.0
2002-04-09,69.0
2002-04-10,70.0
2002-04-11,68.0
2002-04-12,69.0
2002-04-13,68.0
2002-04-14,69.0
2002-04-15,70.0
2002-04-16,72.0
2002-04-17,69.0
2002-04-18,70.0
2002-04-19,69.0
2002-04-20,70.0
2002-04-21,68.0
2002-04-22,67.0
2002-04-23,67.0
2002-04-24,66.0
2002-04-25,68.0
2002-04-26,69.0
2002-04-27,72.0
2002-04-28,71.0
2002-04-29,71.0
2002-04-30,73.0
2002-05-01,77.0
2002-05-02,77.0
2002-05-03,76.0
2002-05-04,78.0
2002-05-05,78.0
2002-05-06,78.0
2002-05-07,79.0
2002-05-08,88.0
2002-05-09,105.0
2002-05-10,107.0
2002-05-11,136.0
2002-05-12,148.0
2002-05-13,145.0
2002-05-14,158.0
2002-05-15,169.0
2002-05-16,177.0
2002-05-17,193.0
2002-05-18,203.0
2002-05-19,189.0
2002-05-20,206.0
2002-05-21,250.0
2002-05-22,253.0
2002-05-23,242.0
2002-05-24,228.0
2002-05-25,219.0
2002-05-26,205.0
2002-05-27,205.0
2002-05-28,205.0
2002-05-29,212.0
2002-05-30,242.0
2002-05-31,251.0
2002-06-01,292.0
2002-06-02,282.0
2002-06-03,280.0
2002-06-04,238.0
2002-06-05,204.0
2002-06-06,203.0
2002-06-07,216.0
2002-06-08,248.0
2002-06-09,250.0
2002-06-10,289.0
2002-06-11,302.0
2002-06-12,325.0
2002-06-13,322.0
2002-06-14,356.0
2002-06-15,398.0
2002-06-16,424.0
2002-06-17,428.0
2002-06-18,441.0
2002-06-19,441.0
2002-06-20,411.0
2002-06-21,406.0
2002-06-22,435.0
2002-06-23,395.0
2002-06-24,365.0
2002-06-25,355.0
2002-06-26,390.0
2002-06-27,410.0
2002-06-28,384.0
2002-06-29,369.0
2002-06-30,378.0
2002-07-01,358.0
2002-07-02,356.0
2002-07-03,359.0
2002-07-04,344.0
2002-07-05,347.0
2002-07-06,325.0
2002-07-07,307.0
2002-07-08,306.0
2002-07-09,296.0
2002-07-10,316.0
2002-07-11,317.0
2002-07-12,292.0
2002-07-13,272.0
2002-07-14,273.0
2002-07-15,268.0
2002-07-16,277.0
2002-07-17,305.0
2002-07-18,319.0
2002-07-19,322.0
2002-07-20,306.0
2002-07-21,301.0
2002-07-22,292.0
2002-07-23,295.0
2002-07-24,266.0
2002-07-25,268.0
2002-07-26,279.0
2002-07-27,265.0
2002-07-28,248.0
2002-07-29,267.0
2002-07-30,273.0
2002-07-31,290.0
2002-08-01,305.0
2002-08-02,307.0
2002-08-03,300.0
2002-08-04,309.0
2002-08-05,309.0
2002-08-06,292.0
2002-08-07,275.0
2002-08-08,298.0
2002-08-09,317.0
2002-08-10,319.0
2002-08-11,311.0
2002-08-12,312.0
2002-08-13,310.0
2002-08-14,319.0
2002-08-15,300.0
2002-08-16,289.0
2002-08-17,274.0
2002-08-18,273.0
2002-08-19,274.0
2002-08-20,257.0
2002-08-21,257.0
2002-08-22,230.0
2002-08-23,221.0
2002-08-24,220.0
2002-08-25,212.0
2002-08-26,230.0
2002-08-27,206.0
2002-08-28,203.0
2002-08-29,203.0
2002-08-30,212.0
2002-08-31,210.0
2002-09-01,198.0
2002-09-02,204.0
2002-09-03,203.0
2002-09-04,204.0
2002-09-05,199.0
2002-09-06,178.0
2002-09-07,157.0
2002-09-08,146.0
2002-09-09,132.0
2002-09-10,131.0
2002-09-11,122.0
2002-09-12,120.0
2002-09-13,107.0
2002-09-14,104.0
2002-09-15,114.0
2002-09-16,109.0
2002-09-17,109.0
2002-09-18,108.0
2002-09-19,99.0
2002-09-20,98.0
2002-09-21,98.0
2002-09-22,104.0
2002-09-23,113.0
2002-09-24,100.0
2002-09-25,105.0
2002-09-26,106.0
2002-09-27,92.0
2002-09-28,97.0
2002-09-29,84.0
2002-09-30,49.0
2002-10-01,39.0
2002-10-02,35.0
2002-10-03,40.0
2002-10-04,34.0
2002-10-05,32.0
2002-10-06,32.0
2002-10-07,30.0
2002-10-08,30.0
2002-10-09,29.0
2002-10-10,30.0
2002-10-11,30.0
2002-10-12,29.0
2002-10-13,30.0
2002-10-14,29.0
2002-10-15,41.0
2002-10-16,72.0
2002-10-17,73.0
2002-10-18,71.0
2002-10-19,69.0
2002-10-20,67.0
2002-10-21,68.0
2002-10-22,72.0
2002-10-23,74.0
2002-10-24,72.0
2002-10-25,72.0
2002-10-26,73.0
2002-10-27,72.0
2002-10-28,73.0
2002-10-29,73.0
2002-10-30,72.0
2002-10-31,73.0
2002-11-01,72.0
2002-11-02,71.0
2002-11-03,72.0
2002-11-04,72.0
2002-11-05,72.0
2002-11-06,72.0
2002-11-07,71.0
2002-11-08,74.0
2002-11-09,87.0
2002-11-10,76.0
2002-11-11,75.0
2002-11-12,74.0
2002-11-13,74.0
2002-11-14,74.0
2002-11-15,74.0
2002-11-16,73.0
2002-11-17,73.0
2002-11-18,72.0
2002-11-19,73.0
2002-11-20,73.0
2002-11-21,73.0
2002-11-22,73.0
2002-11-23,74.0
2002-11-24,74.0
2002-11-25,74.0
2002-11-26,72.0
2002-11-27,72.0
2002-11-28,73.0
2002-11-29,73.0
2002-11-30,73.0
2002-12-01,74.0
2002-12-02,73.0
2002-12-03,73.0
2002-12-04,74.0
2002-12-05,75.0
2002-12-06,75.0
2002-12-07,75.0
2002-12-08,73.0
2002-12-09,73.0
2002-12-10,74.0
2002-12-11,74.0
2002-12-12,75.0
2002-12-13,74.0
2002-12-14,74.0
2002-12-15,74.0
2002-12-16,75.0
2002-12-17,76.0
2002-12-18,74.0
2002-12-19,73.0
2002-12-20,74.0
2002-12-21,75.0
2002-12-22,74.0
2002-12-23,72.0
2002-12-24,70.0
2002-12-25,73.0
2002-12-26,73.0
2002-12-27,75.0
2002-12-28,75.0
2002-12-29,75.0
2002-12-30,73.0
2002-12-31,76.0
2003-01-01,76.0
2003-01-02,74.0
2003-01-03,76.0
2003-01-04,76.0
2003-01-05,75.0
2003-01-06,75.0
2003-01-07,75.0
2003-01-08,75.0
2003-01-09,75.0
2003-01-10,77.0
2003-01-11,76.0
2003-01-12,76.0
2003-01-13,75.0
2003-01-14,76.0
2003-01-15,76.0
2003-01-16,75.0
2003-01-17,76.0
2003-01-18,75.0
2003-01-19,76.0
2003-01-20,76.0
2003-01-21,77.0
2003-01-22,77.0
2003-01-23,77.0
2003-01-24,77.0
2003-01-25,76.0
2003-01-26,77.0
2003-01-27,77.0
2003-01-28,76.0
2003-01-29,75.0
2003-01-30,74.0
2003-01-31,74.0
2003-02-01,74.0
2003-02-02,75.0
2003-02-03,76.0
2003-02-04,78.0
2003-02-05,75.0
2003-02-06,77.0
2003-02-07,75.0
2003-02-08,75.0
2003-02-09,75.0
2003-02-10,73.0
2003-02-11,71.0
2003-02-12,72.0
2003-02-13,74.0
2003-02-14,74.0
2003-02-15,74.0
2003-02-16,73.0
2003-02-17,72.0
2003-02-18,72.0
2003-02-19,72.0
2003-02-20,72.0
2003-02-21,72.0
2003-02-22,72.0
2003-02-23,72.0
2003-02-24,72.0
2003-02-25,73.0
2003-02-26,72.0
2003-02-27,72.0
2003-02-28,71.0
2003-03-01,72.0
2003-03-02,72.0
2003-03-03,72.0
2003-03-04,73.0
2003-03-05,73.0
2003-03-06,72.0
2003-03-07,73.0
2003-03-08,73.0
2003-03-09,73.0
2003-03-10,75.0
2003-03-11,77.0
2003-03-12,77.0
2003-03-13,80.0
2003-03-14,78.0
2003-03-15,76.0
2003-03-16,78.0
2003-03-17,77.0
2003-03-18,76.0
2003-03-19,75.0
2003-03-20,75.0
2003-03-21,74.0
2003-03-22,74.0
2003-03-23,75.0
2003-03-24,76.0
2003-03-25,76.0
2003-03-26,78.0
2003-03-27,78.0
2003-03-28,76.0
2003-03-29,75.0
2003-03-30,76.0
2003-03-31,76.0
2003-04-01,77.0
2003-04-02,77.0
2003-04-03,77.0
2003-04-04,76.0
2003-04-05,77.0
2003-04-06,77.0
2003-04-07,76.0
2003-04-08,76.0
2003-04-09,76.0
2003-04-10,76.0
2003-04-11,77.0
2003-04-12,78.0
2003-04-13,78.0
2003-04-14,78.0
2003-04-15,79.0
2003-04-16,78.0
2003-04-17,78.0
2003-04-18,80.0
2003-04-19,79.0
2003-04-20,78.0
2003-04-21,78.0
2003-04-22,79.0
2003-04-23,79.0
2003-04-24,78.0
2003-04-25,78.0
2003-04-26,78.0
2003-04-27,80.0
2003-04-28,80.0
2003-04-29,81.0
2003-04-30,80.0
2003-05-01,81.0
2003-05-02,167.0
2003-05-03,237.0
2003-05-04,237.0
2003-05-05,176.0
2003-05-06,82.0
2003-05-07,44.0
2003-05-08,49.0
2003-05-09,48.0
2003-05-10,47.0
2003-05-11,46.0
2003-05-12,45.0
2003-05-13,46.0
2003-05-14,46.0
2003-05-15,49.0
2003-05-16,50.0
2003-05-17,52.0
2003-05-18,54.0
2003-05-19,54.0
2003-05-20,53.0
2003-05-21,53.0
2003-05-22,60.0
2003-05-23,107.0
2003-05-24,92.0
2003-05-25,102.0
2003-05-26,123.0
2003-05-27,121.0
2003-05-28,178.0
2003-05-29,166.0
2003-05-30,186.0
2003-05-31,219.0
2003-06-01,244.0
2003-06-02,256.0
2003-06-03,244.0
2003-06-04,260.0
2003-06-05,277.0
2003-06-06,299.0
2003-06-07,303.0
2003-06-08,304.0
2003-06-09,308.0
2003-06-10,340.0
2003-06-11,337.0
2003-06-12,323.0
2003-06-13,346.0
2003-06-14,369.0
2003-06-15,337.0
2003-06-16,348.0
2003-06-17,333.0
2003-06-18,345.0
2003-06-19,365.0
2003-06-20,386.0
2003-06-21,384.0
2003-06-22,379.0
2003-06-23,380.0
2003-06-24,347.0
2003-06-25,251.0
2003-06-26,216.0
2003-06-27,201.0
2003-06-28,187.0
2003-06-29,195.0
2003-06-30,204.0
2003-07-01,235.0
2003-07-02,279.0
2003-07-03,296.0
2003-07-04,322.0
2003-07-05,334.0
2003-07-06,330.0
2003-07-07,332.0
2003-07-08,361.0
2003-07-09,363.0
2003-07-10,371.0
2003-07-11,341.0
2003-07-12,326.0
2003-07-13,310.0
2003-07-14,312.0
2003-07-15,325.0
2003-07-16,332.0
2003-07-17,355.0
2003-07-18,387.0
2003-07-19,385.0
2003-07-20,385.0
2003-07-21,387.0
2003-07-22,415.0
2003-07-23,400.0
2003-07-24,375.0
2003-07-25,375.0
2003-07-26,360.0
2003-07-27,369.0
2003-07-28,348.0
2003-07-29,342.0
2003-07-30,341.0
2003-07-31,404.0
2003-08-01,430.0
2003-08-02,405.0
2003-08-03,427.0
2003-08-04,421.0
2003-08-05,358.0
2003-08-06,352.0
2003-08-07,334.0
2003-08-08,322.0
2003-08-09,321.0
2003-08-10,318.0
2003-08-11,319.0
2003-08-12,321.0
2003-08-13,318.0
2003-08-14,310.0
2003-08-15,308.0
2003-08-16,313.0
2003-08-17,298.0
2003-08-18,276.0
2003-08-19,252.0
2003-08-20,240.0
2003-08-21,223.0
2003-08-22,247.0
2003-08-23,246.0
2003-08-24,236.0
2003-08-25,234.0
2003-08-26,243.0
2003-08-27,245.0
2003-08-28,250.0
2003-08-29,264.0
2003-08-30,249.0
2003-08-31,219.0
2003-09-01,216.0
2003-09-02,216.0
2003-09-03,203.0
2003-09-04,209.0
2003-09-05,209.0
2003-09-06,209.0
2003-09-07,211.0
2003-09-08,211.0
2003-09-09,199.0
2003-09-10,208.0
2003-09-11,206.0
2003-09-12,177.0
2003-09-13,158.0
2003-09-14,132.0
2003-09-15,134.0
2003-09-16,160.0
2003-09-17,188.0
2003-09-18,198.0
2003-09-19,198.0
2003-09-20,182.0
2003-09-21,191.0
2003-09-22,191.0
2003-09-23,158.0
2003-09-24,156.0
2003-09-25,158.0
2003-09-26,144.0
2003-09-27,162.0
2003-09-28,162.0
2003-09-29,170.0
2003-09-30,158.0
2003-10-01,158.0
2003-10-02,117.0
2003-10-03,46.0
2003-10-04,35.0
2003-10-05,35.0
2003-10-06,35.0
2003-10-07,34.0
2003-10-08,34.0
2003-10-09,33.0
2003-10-10,33.0
2003-10-11,33.0
2003-10-12,33.0
2003-10-13,34.0
2003-10-14,35.0
2003-10-15,33.0
2003-10-16,33.0
2003-10-17,33.0
2003-10-18,33.0
2003-10-19,33.0
2003-10-20,33.0
2003-10-21,33.0
2003-10-22,33.0
2003-10-23,33.0
2003-10-24,33.0
2003-10-25,33.0
2003-10-26,33.0
2003-10-27,33.0
2003-10-28,33.0
2003-10-29,33.0
2003-10-30,33.0
2003-10-31,34.0
2003-11-01,35.0
2003-11-02,34.0
2003-11-03,37.0
2003-11-04,48.0
2003-11-05,59.0
2003-11-06,68.0
2003-11-07,68.0
2003-11-08,69.0
2003-11-09,70.0
2003-11-10,71.0
2003-11-11,69.0
2003-11-12,68.0
2003-11-13,69.0
2003-11-14,70.0
2003-11-15,69.0
2003-11-16,71.0
2003-11-17,72.0
2003-11-18,71.0
2003-11-19,70.0
2003-11-20,71.0
2003-11-21,71.0
2003-11-22,70.0
2003-11-23,68.0
2003-11-24,78.0
2003-11-25,69.0
2003-11-26,69.0
2003-11-27,69.0
2003-11-28,69.0
2003-11-29,69.0
2003-11-30,69.0
2003-12-01,69.0
2003-12-02,68.0
2003-12-03,67.0
2003-12-04,68.0
2003-12-05,71.0
2003-12-06,73.0
2003-12-07,73.0
2003-12-08,73.0
2003-12-09,71.0
2003-12-10,72.0
2003-12-11,72.0
2003-12-12,72.0
2003-12-13,72.0
2003-12-14,73.0
2003-12-15,71.0
2003-12-16,71.0
2003-12-17,70.0
2003-12-18,70.0
2003-12-19,71.0
2003-12-20,71.0
2003-12-21,73.0
2003-12-22,72.0
2003-12-23,72.0
2003-12-24,71.0
2003-12-25,71.0
2003-12-26,71.0
2003-12-27,68.0
2003-12-28,68.0
2003-12-29,68.0
2003-12-30,70.0
2003-12-31,70.0
2004-01-01,71.0
2004-01-02,70.0
2004-01-03,68.0
2004-01-04,70.0
2004-01-05,70.0
2004-01-06,72.0
2004-01-07,73.0
2004-01-08,69.0
2004-01-09,70.0
2004-01-10,71.0
2004-01-11,70.0
2004-01-12,76.0
2004-01-13,73.0
2004-01-14,70.0
2004-01-15,70.0
2004-01-16,70.0
2004-01-17,68.0
2004-01-18,68.0
2004-01-19,70.0
2004-01-20,70.0
2004-01-21,72.0
2004-01-22,72.0
2004-01-23,70.0
2004-01-24,69.0
2004-01-25,69.0
2004-01-26,68.0
2004-01-27,69.0
2004-01-28,70.0
2004-01-29,69.0
2004-01-30,69.0
2004-01-31,69.0
2004-02-01,70.0
2004-02-02,71.0
2004-02-03,69.0
2004-02-04,69.0
2004-02-05,68.0
2004-02-06,68.0
2004-02-07,72.0
2004-02-08,69.0
2004-02-09,68.0
2004-02-10,73.0
2004-02-11,73.0
2004-02-12,72.0
2004-02-13,72.0
2004-02-14,70.0
2004-02-15,70.0
2004-02-16,69.0
2004-02-17,68.0
2004-02-18,68.0
2004-02-19,69.0
2004-02-20,68.0
2004-02-21,69.0
2004-02-22,68.0
2004-02-23,69.0
2004-02-24,69.0
2004-02-25,69.0
2004-02-26,71.0
2004-02-27,69.0
2004-02-28,70.0
2004-02-29,69.0
2004-03-01,69.0
2004-03-02,68.0
2004-03-03,68.0
2004-03-04,68.0
2004-03-05,68.0
2004-03-06,68.0
2004-03-07,67.0
2004-03-08,68.0
2004-03-09,68.0
2004-03-10,69.0
2004-03-11,74.0
2004-03-12,73.0
2004-03-13,74.0
2004-03-14,75.0
2004-03-15,76.0
2004-03-16,76.0
2004-03-17,77.0
2004-03-18,77.0
2004-03-19,78.0
2004-03-20,80.0
2004-03-21,83.0
2004-03-22,86.0
2004-03-23,90.0
2004-03-24,79.0
2004-03-25,58.0
2004-03-26,58.0
2004-03-27,53.0
2004-03-28,51.0
2004-03-29,49.0
2004-03-30,49.0
2004-03-31,50.0
2004-04-01,53.0
2004-04-02,55.0
2004-04-03,58.0
2004-04-04,59.0
2004-04-05,61.0
2004-04-06,62.0
2004-04-07,71.0
2004-04-08,67.0
2004-04-09,66.0
2004-04-10,65.0
2004-04-11,63.0
2004-04-12,162.0
2004-04-13,216.0
2004-04-14,187.0
2004-04-15,92.0
2004-04-16,62.0
2004-04-17,60.0
2004-04-18,64.0
2004-04-19,97.0
2004-04-20,88.0
2004-04-21,72.0
2004-04-22,62.0
2004-04-23,61.0
2004-04-24,60.0
2004-04-25,60.0
2004-04-26,60.0
2004-04-27,61.0
2004-04-28,64.0
2004-04-29,67.0
2004-04-30,67.0
2004-05-01,65.0
2004-05-02,67.0
2004-05-03,96.0
2004-05-04,98.0
2004-05-05,100.0
2004-05-06,103.0
2004-05-07,118.0
2004-05-08,119.0
2004-05-09,116.0
2004-05-10,117.0
2004-05-11,118.0
2004-05-12,129.0
2004-05-13,127.0
2004-05-14,111.0
2004-05-15,124.0
2004-05-16,136.0
2004-05-17,150.0
2004-05-18,199.0
2004-05-19,209.0
2004-05-20,211.0
2004-05-21,218.0
2004-05-22,202.0
2004-05-23,189.0
2004-05-24,199.0
2004-05-25,147.0
2004-05-26,130.0
2004-05-27,118.0
2004-05-28,110.0
2004-05-29,124.0
2004-05-30,114.0
2004-05-31,133.0
2004-06-01,144.0
2004-06-02,97.0
2004-06-03,98.0
2004-06-04,98.0
2004-06-05,94.0
2004-06-06,85.0
2004-06-07,86.0
2004-06-08,90.0
2004-06-09,91.0
2004-06-10,96.0
2004-06-11,89.0
2004-06-12,88.0
2004-06-13,87.0
2004-06-14,85.0
2004-06-15,85.0
2004-06-16,86.0
2004-06-17,90.0
2004-06-18,90.0
2004-06-19,89.0
2004-06-20,88.0
2004-06-21,92.0
2004-06-22,86.0
2004-06-23,83.0
2004-06-24,80.0
2004-06-25,82.0
2004-06-26,85.0
2004-06-27,84.0
2004-06-28,79.0
2004-06-29,79.0
2004-06-30,80.0
2004-07-01,77.0
2004-07-02,85.0
2004-07-03,85.0
2004-07-04,86.0
2004-07-05,81.0
2004-07-06,83.0
2004-07-07,81.0
2004-07-08,81.0
2004-07-09,79.0
2004-07-10,76.0
2004-07-11,77.0
2004-07-12,77.0
2004-07-13,83.0
2004-07-14,76.0
2004-07-15,73.0
2004-07-16,83.0
2004-07-17,80.0
2004-07-18,81.0
2004-07-19,82.0
2004-07-20,80.0
2004-07-21,81.0
2004-07-22,80.0
2004-07-23,81.0
2004-07-24,83.0
2004-07-25,84.0
2004-07-26,86.0
2004-07-27,90.0
2004-07-28,90.0
2004-07-29,83.0
2004-07-30,84.0
2004-07-31,82.0
2004-08-01,85.0
2004-08-02,89.0
2004-08-03,90.0
2004-08-04,90.0
2004-08-05,90.0
2004-08-06,84.0
2004-08-07,85.0
2004-08-08,86.0
2004-08-09,84.0
2004-08-10,83.0
2004-08-11,81.0
2004-08-12,80.0
2004-08-13,77.0
2004-08-14,78.0
2004-08-15,82.0
2004-08-16,83.0
2004-08-17,90.0
2004-08-18,85.0
2004-08-19,83.0
2004-08-20,88.0
2004-08-21,91.0
2004-08-22,89.0
2004-08-23,88.0
2004-08-24,88.0
2004-08-25,87.0
2004-08-26,87.0
2004-08-27,86.0
2004-08-28,84.0
2004-08-29,83.0
2004-08-30,85.0
2004-08-31,90.0
2004-09-01,91.0
2004-09-02,91.0
2004-09-03,91.0
2004-09-04,91.0
2004-09-05,90.0
2004-09-06,88.0
2004-09-07,88.0
2004-09-08,88.0
2004-09-09,89.0
2004-09-10,89.0
2004-09-11,87.0
2004-09-12,86.0
2004-09-13,91.0
2004-09-14,90.0
2004-09-15,86.0
2004-09-16,86.0
2004-09-17,88.0
2004-09-18,91.0
2004-09-19,93.0
2004-09-20,94.0
2004-09-21,92.0
2004-09-22,93.0
2004-09-23,93.0
2004-09-24,92.0
2004-09-25,90.0
2004-09-26,90.0
2004-09-27,88.0
2004-09-28,92.0
2004-09-29,95.0
2004-09-30,94.0
2004-10-01,94.0
2004-10-02,63.0
2004-10-03,62.0
2004-10-04,61.0
2004-10-05,62.0
2004-10-06,62.0
2004-10-07,62.0
2004-10-08,62.0
2004-10-09,61.0
2004-10-10,61.0
2004-10-11,61.0
2004-10-12,61.0
2004-10-13,62.0
2004-10-14,64.0
2004-10-15,64.0
2004-10-16,64.0
2004-10-17,63.0
2004-10-18,64.0
2004-10-19,64.0
2004-10-20,74.0
2004-10-21,77.0
2004-10-22,72.0
2004-10-23,66.0
2004-10-24,70.0
2004-10-25,69.0
2004-10-26,65.0
2004-10-27,72.0
2004-10-28,77.0
2004-10-29,65.0
2004-10-30,64.0
2004-10-31,63.0
2004-11-01,64.0
2004-11-02,65.0
2004-11-03,64.0
2004-11-04,64.0
2004-11-05,64.0
2004-11-06,63.0
2004-11-07,63.0
2004-11-08,63.0
2004-11-09,64.0
2004-11-10,65.0
2004-11-11,65.0
2004-11-12,65.0
2004-11-13,63.0
2004-11-14,63.0
2004-11-15,63.0
2004-11-16,63.0
2004-11-17,63.0
2004-11-18,64.0
2004-11-19,65.0
2004-11-20,65.0
2004-11-21,65.0
2004-11-22,66.0
2004-11-23,65.0
2004-11-24,65.0
2004-11-25,66.0
2004-11-26,68.0
2004-11-27,69.0
2004-11-28,69.0
2004-11-29,64.0
2004-11-30,64.0
2004-12-01,66.0
2004-12-02,63.0
2004-12-03,64.0
2004-12-04,66.0
2004-12-05,67.0
2004-12-06,66.0
2004-12-07,66.0
2004-12-08,68.0
2004-12-09,68.0
2004-12-10,68.0
2004-12-11,69.0
2004-12-12,69.0
2004-12-13,70.0
2004-12-14,69.0
2004-12-15,69.0
2004-12-16,68.0
2004-12-17,68.0
2004-12-18,68.0
2004-12-19,68.0
2004-12-20,69.0
2004-12-21,68.0
2004-12-22,66.0
2004-12-23,64.0
2004-12-24,64.0
2004-12-25,67.0
2004-12-26,71.0
2004-12-27,72.0
2004-12-28,69.0
2004-12-29,71.0
2004-12-30,71.0
2004-12-31,71.0
2005-01-01,71.0
2005-01-02,69.0
2005-01-03,70.0
2005-01-04,70.0
2005-01-05,71.0
2005-01-06,71.0
2005-01-07,70.0
2005-01-08,73.0
2005-01-09,73.0
2005-01-10,80.0
2005-01-11,83.0
2005-01-12,76.0
2005-01-13,72.0
2005-01-14,73.0
2005-01-15,76.0
2005-01-16,76.0
2005-01-17,75.0
2005-01-18,75.0
2005-01-19,75.0
2005-01-20,76.0
2005-01-21,75.0
2005-01-22,75.0
2005-01-23,74.0
2005-01-24,75.0
2005-01-25,77.0
2005-01-26,78.0
2005-01-27,80.0
2005-01-28,79.0
2005-01-29,78.0
2005-01-30,77.0
2005-01-31,77.0
2005-02-01,77.0
2005-02-02,77.0
2005-02-03,77.0
2005-02-04,78.0
2005-02-05,78.0
2005-02-06,78.0
2005-02-07,80.0
2005-02-08,78.0
2005-02-09,77.0
2005-02-10,78.0
2005-02-11,79.0
2005-02-12,81.0
2005-02-13,80.0
2005-02-14,80.0
2005-02-15,82.0
2005-02-16,81.0
2005-02-17,80.0
2005-02-18,81.0
2005-02-19,80.0
2005-02-20,81.0
2005-02-21,80.0
2005-02-22,80.0
2005-02-23,78.0
2005-02-24,78.0
2005-02-25,79.0
2005-02-26,79.0
2005-02-27,80.0
2005-02-28,79.0
2005-03-01,79.0
2005-03-02,78.0
2005-03-03,78.0
2005-03-04,79.0
2005-03-05,79.0
2005-03-06,80.0
2005-03-07,82.0
2005-03-08,82.0
2005-03-09,84.0
2005-03-10,86.0
2005-03-11,88.0
2005-03-12,89.0
2005-03-13,90.0
2005-03-14,88.0
2005-03-15,86.0
2005-03-16,84.0
2005-03-17,84.0
2005-03-18,84.0
2005-03-19,84.0
2005-03-20,87.0
2005-03-21,86.0
2005-03-22,85.0
2005-03-23,79.0
2005-03-24,73.0
2005-03-25,72.0
2005-03-26,71.0
2005-03-27,71.0
2005-03-28,73.0
2005-03-29,68.0
2005-03-30,64.0
2005-03-31,66.0
2005-04-01,68.0
2005-04-02,56.0
2005-04-03,59.0
2005-04-04,62.0
2005-04-05,62.0
2005-04-06,65.0
2005-04-07,77.0
2005-04-08,93.0
2005-04-09,85.0
2005-04-10,79.0
2005-04-11,77.0
2005-04-12,74.0
2005-04-13,76.0
2005-04-14,85.0
2005-04-15,86.0
2005-04-16,91.0
2005-04-17,103.0
2005-04-18,116.0
2005-04-19,116.0
2005-04-20,113.0
2005-04-21,105.0
2005-04-22,102.0
2005-04-23,102.0
2005-04-24,113.0
2005-04-25,123.0
2005-04-26,129.0
2005-04-27,149.0
2005-04-28,170.0
2005-04-29,169.0
2005-04-30,161.0
2005-05-01,154.0
2005-05-02,154.0
2005-05-03,153.0
2005-05-04,158.0
2005-05-05,170.0
2005-05-06,195.0
2005-05-07,193.0
2005-05-08,185.0
2005-05-09,181.0
2005-05-10,198.0
2005-05-11,214.0
2005-05-12,200.0
2005-05-13,202.0
2005-05-14,213.0
2005-05-15,226.0
2005-05-16,240.0
2005-05-17,256.0
2005-05-18,231.0
2005-05-19,230.0
2005-05-20,244.0
2005-05-21,263.0
2005-05-22,265.0
2005-05-23,256.0
2005-05-24,254.0
2005-05-25,242.0
2005-05-26,223.0
2005-05-27,209.0
2005-05-28,199.0
2005-05-29,193.0
2005-05-30,190.0
2005-05-31,173.0
2005-06-01,164.0
2005-06-02,156.0
2005-06-03,146.0
2005-06-04,136.0
2005-06-05,129.0
2005-06-06,126.0
2005-06-07,123.0
2005-06-08,118.0
2005-06-09,112.0
2005-06-10,108.0
2005-06-11,107.0
2005-06-12,113.0
2005-06-13,102.0
2005-06-14,100.0
2005-06-15,99.0
2005-06-16,110.0
2005-06-17,115.0
2005-06-18,116.0
2005-06-19,108.0
2005-06-20,107.0
2005-06-21,109.0
2005-06-22,102.0
2005-06-23,102.0
2005-06-24,104.0
2005-06-25,102.0
2005-06-26,101.0
2005-06-27,97.0
2005-06-28,103.0
2005-06-29,99.0
2005-06-30,98.0
2005-07-01,98.0
2005-07-02,98.0
2005-07-03,92.0
2005-07-04,90.0
2005-07-05,90.0
2005-07-06,89.0
2005-07-07,88.0
2005-07-08,85.0
2005-07-09,84.0
2005-07-10,83.0
2005-07-11,82.0
2005-07-12,88.0
2005-07-13,88.0
2005-07-14,84.0
2005-07-15,89.0
2005-07-16,89.0
2005-07-17,88.0
2005-07-18,87.0
2005-07-19,86.0
2005-07-20,84.0
2005-07-21,86.0
2005-07-22,88.0
2005-07-23,87.0
2005-07-24,84.0
2005-07-25,84.0
2005-07-26,83.0
2005-07-27,83.0
2005-07-28,85.0
2005-07-29,90.0
2005-07-30,87.0
2005-07-31,82.0
2005-08-01,86.0
2005-08-02,85.0
2005-08-03,85.0
2005-08-04,88.0
2005-08-05,86.0
2005-08-06,86.0
2005-08-07,86.0
2005-08-08,86.0
2005-08-09,94.0
2005-08-10,92.0
2005-08-11,86.0
2005-08-12,88.0
2005-08-13,87.0
2005-08-14,81.0
2005-08-15,79.0
2005-08-16,90.0
2005-08-17,87.0
2005-08-18,87.0
2005-08-19,85.0
2005-08-20,85.0
2005-08-21,84.0
2005-08-22,81.0
2005-08-23,78.0
2005-08-24,83.0
2005-08-25,80.0
2005-08-26,81.0
2005-08-27,81.0
2005-08-28,81.0
2005-08-29,78.0
2005-08-30,81.0
2005-08-31,84.0
2005-09-01,88.0
2005-09-02,82.0
2005-09-03,80.0
2005-09-04,78.0
2005-09-05,77.0
2005-09-06,74.0
2005-09-07,82.0
2005-09-08,78.0
2005-09-09,95.0
2005-09-10,91.0
2005-09-11,87.0
2005-09-12,86.0
2005-09-13,82.0
2005-09-14,88.0
2005-09-15,84.0
2005-09-16,79.0
2005-09-17,80.0
2005-09-18,79.0
2005-09-19,84.0
2005-09-20,77.0
2005-09-21,82.0
2005-09-22,82.0
2005-09-23,81.0
2005-09-24,80.0
2005-09-25,81.0
2005-09-26,82.0
2005-09-27,87.0
2005-09-28,88.0
2005-09-29,87.0
2005-09-30,91.0
2005-10-01,60.0
2005-10-02,60.0
2005-10-03,62.0
2005-10-04,62.0
2005-10-05,62.0
2005-10-06,62.0
2005-10-07,62.0
2005-10-08,62.0